GW2646 Weather Reports


Display with metric or nautical units.
time (UTC)temp
F
wind
direction
speed
MPH
gust
MPH
rain 1hr
in
rain 24hr
in
rain mn
in
humidity
%
barometer
mb
20260902232545 59 153 4.0 11.0 0.01 0.01 0.01 88 1004.3
20260902232047 60 171 4.0 11.0 0.01 0.01 0.01 87 1004.3
20260902231613 60 123 5.0 11.0 0.00 0.00 0.00 86 1004.3
20260902231047 60 157 5.0 12.0 0.00 0.00 0.00 83 1004.3
20260902230546 60 163 5.0 13.0 0.00 0.00 0.00 84 1004.3
20260902230107 61 197 6.0 13.0 0.00 0.00 0.00 82 1004.3
20260902225546 61 183 5.0 11.0 0.00 0.00 0.00 81 1004.2
20260902225050 62 215 4.0 12.0 0.00 0.00 0.00 79 1004.2
20260902224610 62 268 5.0 15.0 0.00 0.00 0.00 78 1004.2
20260902224047 63 169 7.0 15.0 0.00 0.00 0.00 76 1004.2
20260902223547 63 214 5.0 11.0 0.00 0.00 0.00 76 1004.1
20260902223101 63 178 4.0 11.0 0.00 0.00 0.00 75 1004.0
20260902222543 64 211 4.0 14.0 0.00 0.00 0.00 74 1004.1
20260902222046 64 177 4.0 14.0 0.00 0.00 0.00 73 1004.2
20260902221608 64 202 3.0 12.0 0.00 0.00 0.00 72 1004.1
20260902221045 65 242 6.0 12.0 0.00 0.00 0.00 70 1004.3
20260902220546 66 184 4.0 13.0 0.00 0.00 0.00 69 1003.9
20260902215545 66 240 5.0 14.0 0.00 0.00 0.00 67 1003.9
20260902215045 65 161 6.0 14.0 0.00 0.00 0.00 67 1003.9
20260902214603 66 200 5.0 13.0 0.00 0.00 0.00 67 1003.9
20260902214047 66 180 5.0 16.0 0.00 0.00 0.00 66 1004.1
20260902213546 65 175 6.0 16.0 0.00 0.00 0.00 66 1004.2
20260902213127 66 193 7.0 17.0 0.00 0.00 0.00 65 1004.4
20260902212546 66 195 8.0 17.0 0.00 0.00 0.00 64 1004.3
20260902212045 66 222 4.0 14.0 0.00 0.00 0.00 65 1004.2
20260902211605 66 219 6.0 15.0 0.00 0.00 0.00 65 1004.2
20260902211046 66 169 5.0 15.0 0.00 0.00 0.00 65 1004.2
20260902210548 66 171 7.0 15.0 0.00 0.00 0.00 64 1004.2
20260902205546 67 175 6.0 16.0 0.00 0.00 0.00 61 1004.2
20260902205047 68 232 5.0 13.0 0.00 0.00 0.00 60 1004.2
20260902204600 69 241 3.0 13.0 0.00 0.00 0.00 57 1004.1
20260902204046 70 208 5.0 12.0 0.00 0.00 0.00 56 1004.2
20260902203546 70 186 3.0 13.0 0.00 0.00 0.00 56 1004.0
20260902203108 69 173 4.0 13.0 0.00 0.00 0.00 57 1004.0
20260902202547 69 165 4.0 12.0 0.00 0.00 0.00 56 1004.0
20260902202046 70 192 2.0 9.0 0.00 0.00 0.00 57 1004.1
20260902201605 69 154 3.0 9.0 0.00 0.00 0.00 57 1004.1
20260902201045 69 185 3.0 9.0 0.00 0.00 0.00 58 1004.1
20260902200547 69 153 1.0 9.0 0.00 0.00 0.00 59 1004.2
20260902200134 69 194 4.0 14.0 0.00 0.00 0.00 56 1004.3
20260902195546 69 166 4.0 14.0 0.00 0.00 0.00 57 1004.4
20260902195046 69 144 1.0 13.0 0.00 0.00 0.00 61 1004.5
20260902194601 69 136 6.0 13.0 0.00 0.00 0.00 58 1004.5
20260902194046 69 182 3.0 14.0 0.00 0.00 0.00 57 1004.6
20260902193546 68 157 5.0 14.0 0.00 0.00 0.00 59 1004.7
20260902193103 68 152 6.0 14.0 0.00 0.00 0.00 59 1004.7
20260902192546 68 156 5.0 12.0 0.00 0.00 0.00 60 1004.7
20260902192047 68 159 4.0 15.0 0.00 0.00 0.00 60 1004.7
20260902191609 68 153 6.0 22.0 0.00 0.00 0.00 59 1004.8
20260902191047 68 187 7.0 22.0 0.00 0.00 0.00 59 1004.8
20260902190546 68 149 7.0 16.0 0.00 0.00 0.00 60 1004.9
20260902190115 69 178 6.0 16.0 0.00 0.00 0.00 60 1005.0
20260902185552 68 119 6.0 14.0 0.00 0.00 0.00 60 1005.0
20260902185053 69 160 7.0 14.0 0.00 0.00 0.00 59 1005.1
20260902184603 69 174 1.0 12.0 0.00 0.00 0.00 61 1005.1
20260902184046 68 163 5.0 12.0 0.00 0.00 0.00 61 1005.1
20260902183550 68 176 5.0 11.0 0.00 0.00 0.00 62 1005.2
20260902183119 67 161 6.0 11.0 0.00 0.00 0.00 63 1005.2
20260902182546 67 121 2.0 11.0 0.00 0.00 0.00 64 1005.2
20260902182046 67 164 5.0 12.0 0.00 0.00 0.00 62 1005.3
20260902181600 67 172 6.0 12.0 0.00 0.00 0.00 62 1005.3
20260902181043 67 172 4.0 16.0 0.00 0.00 0.00 64 1005.4
20260902180546 67 169 7.0 16.0 0.00 0.00 0.00 63 1005.4
20260902180131 67 167 7.0 16.0 0.00 0.00 0.00 60 1005.5
20260902175546 66 173 5.0 16.0 0.00 0.00 0.00 63 1005.5
20260902175045 66 119 8.0 15.0 0.00 0.00 0.00 63 1005.6
20260902174605 66 127 4.0 14.0 0.00 0.00 0.00 64 1005.6
20260902174045 66 192 4.0 12.0 0.00 0.00 0.00 63 1005.6
20260902173546 66 161 4.0 18.0 0.00 0.00 0.00 64 1005.5
20260902173102 66 123 6.0 18.0 0.00 0.00 0.00 64 1005.5
20260902172546 66 167 6.0 14.0 0.00 0.00 0.00 64 1005.6
20260902172045 66 148 5.0 12.0 0.00 0.00 0.00 65 1005.7
20260902171604 66 137 4.0 14.0 0.00 0.00 0.00 65 1005.7
20260902171050 66 175 3.0 14.0 0.00 0.00 0.00 65 1005.9
20260902170547 66 132 4.0 14.0 0.00 0.00 0.00 66 1005.8
20260902170100 66 167 6.0 13.0 0.00 0.00 0.00 65 1006.0
20260902165548 66 203 5.0 14.0 0.00 0.00 0.00 66 1005.9
20260902165049 67 164 7.0 14.0 0.00 0.00 0.00 65 1006.0
20260902164603 67 161 3.0 12.0 0.00 0.00 0.00 67 1005.9
20260902164046 66 167 3.0 12.0 0.00 0.00 0.00 68 1006.1
20260902163546 65 191 6.0 17.0 0.00 0.00 0.00 69 1006.1
20260902163101 65 171 4.0 17.0 0.00 0.00 0.00 71 1006.4
20260902162546 64 118 2.0 11.0 0.00 0.00 0.00 72 1006.4
20260902162046 64 133 4.0 11.0 0.00 0.00 0.00 72 1006.5
20260902161603 63 195 5.0 11.0 0.00 0.00 0.00 73 1006.5
20260902161045 63 184 1.0 9.0 0.00 0.00 0.00 75 1006.5
20260902160545 63 152 1.0 11.0 0.00 0.00 0.00 77 1006.5
20260902160107 62 160 3.0 13.0 0.00 0.00 0.00 77 1006.6
20260902155544 62 175 4.0 13.0 0.00 0.00 0.00 77 1006.7
20260902155050 61 155 7.0 13.0 0.00 0.00 0.00 78 1006.8
20260902154618 61 152 5.0 11.0 0.00 0.00 0.00 77 1006.8
20260902154050 61 160 5.0 12.0 0.00 0.00 0.00 79 1006.8
20260902153545 61 151 4.0 12.0 0.00 0.00 0.00 80 1006.9
20260902153103 61 142 5.0 12.0 0.00 0.00 0.00 80 1006.9
20260902152548 61 147 1.0 9.0 0.00 0.00 0.00 82 1006.9
20260902152047 61 182 2.0 9.0 0.00 0.00 0.00 82 1006.9
20260902151559 60 145 0.0 6.0 0.00 0.00 0.00 83 1007.1
20260902151047 60 0 1.0 6.0 0.00 0.00 0.00 83 1007.0
20260902150551 60 0 0.0 7.0 0.00 0.00 0.00 84 1007.1
20260902150058 60 0 0.0 7.0 0.00 0.00 0.00 84 1007.1
20260902145546 60 142 2.0 6.0 0.00 0.00 0.00 84 1007.2
20260902145046 59 141 0.0 7.0 0.00 0.00 0.00 85 1007.2
20260902144603 59 142 1.0 8.0 0.00 0.00 0.00 85 1007.4
20260902144046 59 145 1.0 8.0 0.00 0.00 0.00 85 1007.4
20260902143547 59 0 1.0 6.0 0.00 0.00 0.00 85 1007.3
20260902143058 59 173 0.0 7.0 0.00 0.00 0.00 85 1007.4
20260902142546 59 174 1.0 10.0 0.00 0.00 0.00 85 1007.4
20260902142047 59 0 2.0 10.0 0.00 0.00 0.00 85 1007.5
20260902141600 59 155 2.0 10.0 0.00 0.00 0.00 86 1007.5
20260902141046 59 159 2.0 7.0 0.00 0.00 0.00 87 1007.5
20260902140549 59 146 1.0 8.0 0.00 0.00 0.00 87 1007.4
20260902140105 59 0 1.0 8.0 0.00 0.00 0.00 87 1007.4
20260902135544 59 0 0.0 9.0 0.00 0.00 0.00 87 1007.4
20260902135046 59 0 0.0 11.0 0.00 0.00 0.00 87 1007.4
20260902134600 59 0 2.0 11.0 0.00 0.00 0.00 87 1007.5
20260902134046 59 146 2.0 8.0 0.00 0.00 0.00 87 1007.4
20260902133546 59 0 2.0 8.0 0.00 0.00 0.00 87 1007.5
20260902133104 59 125 2.0 10.0 0.00 0.00 0.00 87 1007.4
20260902132549 59 172 2.0 10.0 0.00 0.00 0.00 87 1007.5
20260902132046 59 0 1.0 7.0 0.00 0.00 0.00 87 1007.5
20260902131608 59 0 1.0 8.0 0.00 0.00 0.00 87 1007.5
20260902131047 59 0 1.0 12.0 0.00 0.00 0.00 87 1007.6
20260902130546 59 148 2.0 12.0 0.00 0.00 0.00 87 1007.6
20260902130103 59 152 4.0 9.0 0.00 0.00 0.00 87 1007.7
20260902125547 59 176 4.0 9.0 0.00 0.00 0.00 87 1007.6
20260902125047 59 169 3.0 10.0 0.00 0.00 0.00 87 1007.7
20260902124601 59 153 5.0 10.0 0.00 0.00 0.00 88 1007.7
20260902124050 59 164 3.0 10.0 0.00 0.00 0.00 88 1007.6
20260902123546 59 0 3.0 10.0 0.00 0.00 0.00 88 1007.7
20260902123057 59 164 2.0 10.0 0.00 0.00 0.00 89 1007.7
20260902122547 59 154 3.0 10.0 0.00 0.00 0.00 89 1007.7
20260902122048 59 179 3.0 10.0 0.00 0.00 0.00 89 1007.7
20260902121605 59 155 3.0 12.0 0.00 0.00 0.00 89 1007.7
20260902121047 58 152 4.0 14.0 0.00 0.00 0.00 89 1007.7
20260902120547 58 121 3.0 14.0 0.00 0.00 0.00 90 1007.7
20260902120100 58 163 1.0 12.0 0.00 0.00 0.00 90 1007.7
20260902115546 58 154 2.0 8.0 0.00 0.00 0.00 90 1007.7
20260902115046 58 0 1.0 7.0 0.00 0.00 0.00 90 1007.8
20260902114559 58 0 1.0 12.0 0.00 0.00 0.00 90 1007.8
20260902114049 58 144 2.0 12.0 0.00 0.00 0.00 90 1007.8
20260902113546 58 167 2.0 8.0 0.00 0.00 0.00 90 1007.9
20260902113114 59 154 1.0 7.0 0.00 0.00 0.00 90 1007.8
20260902112551 59 134 0.0 7.0 0.00 0.00 0.00 89 1007.8
20260902112049 59 0 1.0 9.0 0.00 0.00 0.00 89 1007.9
20260902111602 59 0 2.0 9.0 0.00 0.00 0.00 89 1007.9
20260902111047 59 144 1.0 7.0 0.00 0.00 0.00 89 1008.0
20260902110550 59 156 2.0 12.0 0.00 0.00 0.00 89 1008.1
20260902110058 59 136 3.0 12.0 0.00 0.00 0.00 88 1008.0
20260902105549 59 149 2.0 7.0 0.00 0.00 0.00 88 1008.0
20260902105046 59 84 3.0 8.0 0.00 0.00 0.00 88 1008.1
20260902104558 59 148 2.0 8.0 0.00 0.00 0.00 88 1008.0
20260902104047 59 129 4.0 9.0 0.00 0.00 0.00 88 1008.0
20260902103547 59 159 2.0 9.0 0.00 0.00 0.00 87 1008.1
20260902103104 59 0 2.0 8.0 0.00 0.00 0.00 87 1008.1
20260902102547 59 0 1.0 8.0 0.00 0.00 0.00 87 1008.2
20260902102047 59 155 3.0 9.0 0.00 0.00 0.00 87 1008.3
20260902101615 59 161 3.0 10.0 0.00 0.00 0.00 87 1008.3
20260902101045 59 173 3.0 10.0 0.00 0.00 0.00 87 1008.3
20260902100547 59 175 2.0 6.0 0.00 0.00 0.00 87 1008.4
20260902100058 59 149 1.0 5.0 0.00 0.00 0.00 87 1008.3
20260902095547 59 0 1.0 5.0 0.00 0.00 0.00 87 1008.3
20260902095046 59 149 1.0 5.0 0.00 0.00 0.00 87 1008.3
20260902094602 59 150 0.0 7.0 0.00 0.00 0.00 87 1008.4
20260902094046 59 0 1.0 7.0 0.00 0.00 0.00 87 1008.5
20260902093548 59 0 0.0 7.0 0.00 0.00 0.00 87 1008.6
20260902093100 59 0 1.0 7.0 0.00 0.00 0.00 86 1008.5
20260902092548 59 161 1.0 7.0 0.00 0.00 0.00 86 1008.6
20260902092047 59 0 2.0 8.0 0.00 0.00 0.00 86 1008.7
20260902091606 59 153 1.0 9.0 0.00 0.00 0.00 86 1008.7
20260902091046 59 154 1.0 10.0 0.00 0.00 0.00 85 1008.8
20260902090547 60 0 2.0 10.0 0.00 0.00 0.00 85 1008.8
20260902090122 60 166 2.0 9.0 0.00 0.00 0.00 85 1008.8
20260902085550 60 0 4.0 11.0 0.00 0.00 0.00 85 1008.8
20260902085047 60 175 3.0 11.0 0.00 0.00 0.00 85 1009.0
20260902084604 60 148 3.0 15.0 0.00 0.00 0.00 85 1009.0
20260902084047 60 149 3.0 15.0 0.00 0.00 0.00 85 1009.0
20260902083546 60 159 6.0 12.0 0.00 0.00 0.00 84 1009.1
20260902083056 60 162 5.0 12.0 0.00 0.00 0.00 84 1009.2
20260902082547 60 171 4.0 14.0 0.00 0.00 0.00 84 1009.2
20260902082046 60 133 5.0 14.0 0.00 0.00 0.00 84 1009.1
20260902081605 60 144 5.0 12.0 0.00 0.00 0.00 84 1009.2
20260902081046 60 181 6.0 13.0 0.00 0.00 0.00 85 1009.1
20260902080547 60 167 6.0 13.0 0.00 0.00 0.00 85 1009.1
20260902080111 60 150 4.0 12.0 0.00 0.00 0.00 86 1009.2
20260902075546 60 181 4.0 12.0 0.00 0.00 0.00 86 1009.1
20260902075050 60 117 5.0 14.0 0.00 0.00 0.00 86 1009.2
20260902074559 60 159 3.0 14.0 0.00 0.00 0.00 86 1009.2
20260902074046 60 156 4.0 14.0 0.00 0.00 0.00 87 1009.1
20260902073544 60 163 5.0 14.0 0.00 0.00 0.00 87 1009.1
20260902073103 60 150 4.0 14.0 0.00 0.00 0.00 87 1009.1
20260902072547 60 136 4.0 13.0 0.00 0.00 0.00 87 1009.3
20260902072047 60 149 6.0 12.0 0.00 0.00 0.00 87 1009.2
20260902071605 59 180 1.0 12.0 0.00 0.00 0.00 87 1009.3
20260902071044 59 142 3.0 12.0 0.00 0.00 0.00 87 1009.3
20260902070545 59 163 4.0 12.0 0.00 0.00 0.00 88 1009.2
20260902070105 59 165 1.0 8.0 0.00 0.00 0.00 88 1009.3
20260902065545 59 150 1.0 9.0 0.00 0.00 0.00 88 1009.3
20260902065049 59 0 2.0 10.0 0.00 0.00 0.00 87 1009.3
20260902064606 59 152 2.0 10.0 0.00 0.00 0.00 87 1009.3
20260902064047 60 160 2.0 9.0 0.00 0.00 0.00 87 1009.3
20260902063546 60 140 3.0 9.0 0.00 0.00 0.00 87 1009.3
20260902063058 60 166 2.0 7.0 0.00 0.00 0.00 87 1009.3
20260902062546 60 0 4.0 9.0 0.00 0.00 0.00 87 1009.3
20260902062047 60 159 2.0 9.0 0.00 0.00 0.00 86 1009.4
20260902061624 60 140 1.0 9.0 0.00 0.00 0.00 86 1009.5
20260902061047 60 150 2.0 14.0 0.00 0.00 0.00 86 1009.5
20260902060547 60 164 3.0 15.0 0.00 0.00 0.00 85 1009.5
20260902060106 60 170 5.0 15.0 0.00 0.00 0.00 85 1009.5
20260902055547 60 134 2.0 11.0 0.00 0.00 0.00 85 1009.5
20260902055046 60 155 3.0 9.0 0.00 0.00 0.00 85 1009.5
20260902054606 61 159 1.0 9.0 0.00 0.00 0.00 84 1009.5
20260902054044 61 148 3.0 9.0 0.00 0.00 0.00 84 1009.6
20260902053547 61 169 3.0 10.0 0.00 0.00 0.00 83 1009.6
20260902053104 61 0 1.0 13.0 0.00 0.00 0.00 83 1009.6
20260902052546 61 160 3.0 13.0 0.00 0.00 0.00 82 1009.7
20260902052044 62 173 5.0 11.0 0.00 0.00 0.00 82 1009.6
20260902051559 62 141 5.0 10.0 0.00 0.00 0.00 82 1009.7
20260902051046 62 134 4.0 10.0 0.00 0.00 0.00 82 1009.6
20260902050544 62 154 5.0 11.0 0.00 0.00 0.00 82 1009.6
20260902050106 62 167 4.0 11.0 0.00 0.00 0.00 82 1009.7
20260902045549 62 140 4.0 10.0 0.00 0.00 0.00 82 1009.6
20260902045046 62 140 0.0 8.0 0.00 0.00 0.00 82 1009.6
20260902044608 62 0 1.0 8.0 0.00 0.00 0.00 81 1009.6
20260902044046 62 129 3.0 8.0 0.00 0.00 0.00 81 1009.6
20260902043546 62 172 0.0 8.0 0.00 0.00 0.00 82 1009.5
20260902043103 62 172 3.0 9.0 0.00 0.00 0.00 81 1009.6
20260902042546 62 160 0.0 10.0 0.00 0.00 0.00 82 1009.6
20260902042047 62 160 3.0 10.0 0.00 0.00 0.00 81 1009.6
20260902041609 62 130 3.0 13.0 0.00 0.00 0.00 81 1009.6
20260902041046 62 147 3.0 13.0 0.00 0.00 0.00 81 1009.5
20260902040546 62 172 4.0 11.0 0.00 0.00 0.00 81 1009.5
20260902035546 63 157 4.0 11.0 0.00 0.00 0.00 81 1009.5
20260902035047 63 146 3.0 9.0 0.00 0.00 0.00 81 1009.5
20260902034604 63 148 2.0 9.0 0.00 0.00 0.00 81 1009.5
20260902034046 63 160 3.0 9.0 0.00 0.00 0.00 81 1009.5
20260902033546 63 152 4.0 10.0 0.00 0.00 0.00 81 1009.4
20260902033110 63 155 3.0 10.0 0.00 0.00 0.00 80 1009.4
20260902032547 63 193 3.0 9.0 0.00 0.00 0.00 80 1009.4
20260902032046 63 136 3.0 9.0 0.00 0.00 0.00 80 1009.3
20260902031559 63 0 2.0 9.0 0.00 0.00 0.00 80 1009.3
20260902031045 63 157 2.0 9.0 0.00 0.00 0.00 80 1009.4
20260902030548 63 136 3.0 10.0 0.00 0.00 0.00 80 1009.3
20260902030114 64 161 5.0 10.0 0.00 0.00 0.00 79 1009.3
20260902025545 64 164 3.0 9.0 0.00 0.00 0.00 79 1009.3
20260902025049 64 0 2.0 8.0 0.00 0.00 0.00 79 1009.1
20260902024600 64 157 2.0 7.0 0.00 0.00 0.00 79 1009.2
20260902024046 64 0 3.0 7.0 0.00 0.00 0.00 78 1009.1
20260902023546 64 0 1.0 6.0 0.00 0.00 0.00 78 1009.2
20260902023112 64 0 2.0 8.0 0.00 0.00 0.00 78 1009.1
20260902022546 64 0 1.0 8.0 0.00 0.00 0.00 78 1009.1
20260902022047 64 170 0.0 8.0 0.00 0.00 0.00 78 1009.1
20260902021613 64 148 2.0 8.0 0.00 0.00 0.00 77 1009.1
20260902021046 65 161 2.0 8.0 0.00 0.00 0.00 77 1009.2
20260902020548 65 0 3.0 11.0 0.00 0.00 0.00 77 1009.2
20260902015545 65 167 3.0 13.0 0.00 0.00 0.00 77 1009.3
20260902015047 65 153 5.0 13.0 0.00 0.00 0.00 76 1009.3
20260902014557 65 172 4.0 13.0 0.00 0.00 0.00 76 1009.3
20260902014046 66 156 1.0 9.0 0.00 0.00 0.00 76 1009.3
20260902013546 66 0 3.0 9.0 0.00 0.00 0.00 76 1009.3
20260902013057 66 179 2.0 11.0 0.00 0.00 0.00 76 1009.3
20260902012546 66 0 4.0 11.0 0.00 0.00 0.00 76 1009.2
20260902012050 66 165 4.0 10.0 0.00 0.00 0.00 76 1009.3
20260902011558 66 0 2.0 10.0 0.00 0.00 0.00 75 1009.2
20260902011046 66 114 3.0 10.0 0.00 0.00 0.00 75 1009.2
20260902010543 66 174 3.0 7.0 0.00 0.00 0.00 75 1009.3
20260902005551 66 153 1.0 8.0 0.00 0.00 0.00 76 1009.2
20260902005047 66 167 2.0 8.0 0.00 0.00 0.00 75 1009.1
20260902004602 67 0 0.0 8.0 0.00 0.00 0.00 76 1009.2
20260902004049 67 155 2.0 9.0 0.00 0.00 0.00 75 1009.2
20260902003547 67 149 3.0 10.0 0.00 0.00 0.00 74 1009.2
20260902003106 67 165 2.0 10.0 0.00 0.00 0.00 74 1009.2
20260902002547 67 148 3.0 12.0 0.00 0.00 0.00 74 1009.2
20260902002045 67 163 4.0 12.0 0.00 0.00 0.00 75 1009.1
20260902001600 67 149 4.0 11.0 0.00 0.00 0.00 75 1009.2
20260902001046 66 160 3.0 11.0 0.00 0.00 0.00 76 1009.1
20260902000546 66 148 2.0 11.0 0.00 0.00 0.00 76 1009.1
20260902000103 66 159 5.0 11.0 0.00 0.00 0.00 76 1009.2
20260901235547 65 165 4.0 10.0 0.00 0.00 0.00 77 1009.1
20260901235046 65 128 2.0 9.0 0.00 0.00 0.00 77 1009.2
20260901234615 65 146 2.0 9.0 0.00 0.00 0.00 78 1009.2
20260901234047 65 172 1.0 7.0 0.00 0.00 0.00 78 1009.2
20260901233546 65 164 2.0 7.0 0.00 0.00 0.00 77 1009.2
20260901233104 65 0 0.0 7.0 0.00 0.00 0.00 78 1009.2